Regional Weather Roundup
Issued by NWS Kansas City/Pleasant Hill, MO

Home | Current Version | Previous Version | Graphics & Text | Print | Product List | Glossary Off
Versions: 1 2 3 4 5 6 7 8 9 10 11 12 13 14 15 16 17 18 19 20 21 22 23 24 25 26 27 28 29 30 31 32 33 34 35 36 37 38 39 40 41 42 43 44 45 46 47 48 49 50

000
ASUS43 KEAX 222210
RWREAX

WEATHER ROUNDUP FOR EASTERN KANSAS AND NORTHWEST MISSOURI
NATIONAL WEATHER SERVICE KANSAS CITY/PLEASANT HILL MO
500 PM CDT FRI MAY 22 2015

KSZ040-057-103>105-MOZ028-029-037-043-222300-
...KANSAS CITY METROPOLITAN AREA...

CITY           SKY/WX    TMP DP  RH WIND       PRES   REMARKS
K.C. INTL      CLOUDY    65  47  52 S9        30.23S
K.C. DOWNTOWN  CLOUDY    66  46  48 S8        30.22S
LEES SUMMIT    CLOUDY    65  48  54 SE6       30.24R
OLATHE - IXD   LGT RAIN  63  49  60 SE7       30.23F
OLATHE - OJC   LGT RAIN  63  52  67 SE5       30.23S
LAWRENCE       CLOUDY    64  47  53 SE10      30.22F

$$

MOZ001>008-011>017-020>025-030>033-038>040-044>046-053-054-222300-
...NORTHERN AND CENTRAL MISSOURI...

CITY           SKY/WX    TMP DP  RH WIND       PRES   REMARKS
ST. JOSEPH     CLOUDY    66  48  52 E5        30.23S
MOSBY          CLOUDY    64  46  52 E5        30.23S
WARRENSBURG    DRIZZLE   64  50  59 E5        30.23S
WHITEMAN AFB   CLOUDY    66  51  59 SE5       30.22F
CLINTON        CLOUDY    66  54  63 E6        30.23S
SEDALIA        CLOUDY    67  51  56 SE3       30.25F
WARSAW         NOT AVBL
CHILLICOTHE      N/A     69  55  60 CALM      30.24F
KIRKSVILLE     CLOUDY    67  53  61 SW6       30.24R

$$

MOZ041-047>049-056>058-063>065-088>090-097-222300-
...EASTERN AND SOUTHERN MISSOURI...

CITY           SKY/WX    TMP DP  RH WIND       PRES   REMARKS
ST. LOUIS INTL CLOUDY    75  48  38 W10       30.24S
SPIRIT OF STL  PTSUNNY   74  50  42 W7        30.22F
COLUMBIA       PTSUNNY   70  49  47 VRB5      30.24S
JEFFERSON CITY PTSUNNY   71  44  37 S5        30.23F
ROLLA          CLOUDY    69  52  54 SE7       30.23F
OSAGE BEACH    CLOUDY    70  50  49 S5        30.25S
SPRINGFIELD    CLOUDY    64  44  48 E14       30.21F
BRANSON        CLOUDY    63  48  59 E6        30.24F
JOPLIN         CLOUDY    65  47  52 SE8       30.20F
WEST PLAINS    CLOUDY    65  46  50 SE3       30.27S

$$

IAZ060-094-KSZ022-034>040-054-083-096-NEZ052-066-093-222300-
...KANSAS...SOUTHEAST NEBRASKA AND IOWA...

CITY           SKY/WX    TMP DP  RH WIND       PRES   REMARKS
TOPEKA         CLOUDY    63  46  54 SE10      30.22S
MANHATTAN      CLOUDY    65  50  58 S12       30.18F
EMPORIA        CLOUDY    63  48  58 SE9       30.18F
CHANUTE        CLOUDY    63  49  60 SE10      30.19F
WICHITA        CLOUDY    60  54  80 SE12      30.15F
OMAHA          CLOUDY    63  49  60 E9        30.22F
LINCOLN        CLOUDY    64  45  49 SE10      30.21S
FALLS CITY     CLOUDY    65  47  52 SE10      30.21F
LAMONI         CLOUDY    67  48  50 SW8       30.23S
DES MOINES     CLOUDY    75  39  27 W6        30.19F

$$




USA.gov is the U.S. government's official web portal to all federal, state and local government web resources and services.